{"data":{"norad_id":51653,"intl_designator":"2022-012AH","name":"ONEWEB-0473","alt_names":[],"object_type":"PAYLOAD","status":"ACTIVE","operator":null,"country":"UK","launch_date":"2022-02-10","launch_site_code":"FRGUI","launch_vehicle":null,"mission":null,"orbit_class":"UNKNOWN","rcs_meters":null,"size_class":null,"mass_kg":null,"dimensions":null,"purposes":["comms"],"wikipedia_slug":null,"has_3d_model":false,"image_url":null,"decayed_at":null,"tle_current":{"epoch":"2026-09-20T00:20:04.715808Z","epoch_age_seconds":68031,"freshness":"FRESH","line1":"1 51653U 22012AH  26263.01394347  .00000449  00000+0  12494-2 0  9995","line2":"2 51653  87.8895  17.3947 0001710  99.2553 260.8767 13.10369975221724","mean_motion":13.10369975,"eccentricity":0.000171,"inclination_deg":87.8895,"raan_deg":17.3947,"arg_perigee_deg":99.2553,"mean_anomaly_deg":260.8767,"bstar":0.0012494,"rev_number":22172,"period_min":109.89262784352,"perigee_km":1220.4285624795,"apogee_km":1223.0277163571,"semimajor_km":7599.8651394183,"source":"CELESTRAK","updated_at":"2026-09-20T09:00:44.714082Z"}}}